Location: Les Coudrans
(46.1056°N, 1.1158°W)
Time: 14:35:38
(UTC+00:00)

USA 308 - Pass Details

Date: 03 March 2021
Orbit: 568 x 576 km, 54.0° (Epoch: 13 April)

Event Time Altitude Azimuth Distance (km) Brightness Sun altitude
Rises 18:24:56 0° 271° (W) 2,775 9.1 -6.2°
Reaches altitude 10° 18:27:22 10° 282° (WNW) 1,877 7.1 -6.6°
Maximum altitude 18:31:15 33° 347° (NNW) 981 4.2 -7.3°
Drops below altitude 10° 18:35:07 10° 52° (NE) 1,876 5.1 -8.0°
Enters shadow 18:35:58 - 56° (ENE) 2,182 5.4 -8.1°
